Location: Nairn
(57.5833°N, 3.8667°W)
Time: 01:50:32
(UTC+00:00)

Vanguard 1 Rocket - Pass Details

Date: 29 November 2020
Orbit: 655 x 4221 km, 34.3° (Epoch: 20 January)

Event Time Altitude Azimuth Distance (km) Brightness Sun altitude
Exits shadow 23:50:02 12° 107° (ESE) 6,522 11.5 -54.0°
Drops below altitude 10° 23:51:18 10° 104° (ESE) 6,587 11.6 -54.0°
Sets 23:57:46 0° 90° (E) 7,081 11.9 -54.1°
